contact: severine.martini@mio.osupytheas.fr, dominique.lefevre@mio.osupytheas.fr
Project:EMSO Ligure-ouest http://www.emso-fr.org/EMSO-France
Sensor Microcat Sea-Bird SBE37 SMP,  Serial 57510 
DOI : "https://doi.org/10.17882/97948" 
Title:EMSO Ligure Ouest : Data Bathybot capteur Microcat - deploiement 2023-04-28
Datetime,Profondeur,Latitude,Longitude,Temperature,Conductivite,Pression,Salinite
time,m,degree_north,degree_east,degree_C,S/m,db,PSU 
2023-09-20T13:24:49,2420,42.8014,5.9826,13.2973,4.59892,2453.672,38.4859
2023-09-20T13:27:49,2420,42.8014,5.9826,13.2970,4.59892,2453.672,38.4862
2023-09-20T13:30:50,2420,42.8014,5.9826,13.2968,4.59889,2453.695,38.4862
2023-09-20T13:33:49,2420,42.8014,5.9826,13.2966,4.59905,2453.649,38.4879
2023-09-20T13:36:49,2420,42.8014,5.9826,13.2973,4.59889,2453.672,38.4856
2023-09-20T13:39:49,2420,42.8014,5.9826,13.2968,4.59891,2453.672,38.4863
2023-09-20T13:42:49,2420,42.8014,5.9826,13.2972,4.59883,2453.672,38.4852
2023-09-20T13:45:49,2420,42.8014,5.9826,13.2968,4.59883,2453.649,38.4856
2023-09-20T13:48:49,2420,42.8014,5.9826,13.2968,4.59885,2453.672,38.4858
2023-09-20T13:51:49,2420,42.8014,5.9826,13.2970,4.59886,2453.657,38.4856
2023-09-20T13:54:49,2420,42.8014,5.9826,13.2968,4.59889,2453.649,38.4862
2023-09-20T13:57:49,2420,42.8014,5.9826,13.2972,4.59884,2453.672,38.4853
2023-09-20T14:00:49,2420,42.8014,5.9826,13.2970,4.59889,2453.672,38.4860
2023-09-20T14:03:49,2420,42.8014,5.9826,13.2968,4.59900,2453.649,38.4872
2023-09-20T14:06:49,2420,42.8014,5.9826,13.2970,4.59889,2453.649,38.4860
2023-09-20T14:09:49,2420,42.8014,5.9826,13.2968,4.59888,2453.687,38.4861
2023-09-20T14:12:49,2420,42.8014,5.9826,13.2971,4.59889,2453.672,38.4859
2023-09-20T14:15:49,2420,42.8014,5.9826,13.2970,4.59898,2453.657,38.4868
2023-09-20T14:18:49,2420,42.8014,5.9826,13.2969,4.59892,2453.649,38.4864
2023-09-20T14:21:49,2420,42.8014,5.9826,13.2970,4.59891,2453.664,38.4862
2023-09-20T14:24:49,2420,42.8014,5.9826,13.2969,4.59893,2453.649,38.4864
2023-09-20T14:27:49,2420,42.8014,5.9826,13.2968,4.59897,2453.627,38.4869
2023-09-20T14:30:49,2420,42.8014,5.9826,13.2970,4.59889,2453.649,38.4860
2023-09-20T14:33:49,2420,42.8014,5.9826,13.2972,4.59905,2453.649,38.4873
2023-09-20T14:36:49,2420,42.8014,5.9826,13.2966,4.59903,2453.649,38.4876
2023-09-20T14:39:49,2420,42.8014,5.9826,13.2968,4.59900,2453.641,38.4873
2023-09-20T14:42:49,2420,42.8014,5.9826,13.2968,4.59884,2453.664,38.4857
2023-09-20T14:45:49,2420,42.8014,5.9826,13.2970,4.59890,2453.604,38.4861
2023-09-20T14:48:49,2420,42.8014,5.9826,13.2970,4.59892,2453.649,38.4863
2023-09-20T14:51:49,2420,42.8014,5.9826,13.2973,4.59888,2453.649,38.4856
2023-09-20T14:54:49,2420,42.8014,5.9826,13.2968,4.59887,2453.627,38.4859
2023-09-20T14:57:49,2420,42.8014,5.9826,13.2970,4.59900,2453.649,38.4870
2023-09-20T15:00:49,2420,42.8014,5.9826,13.2971,4.59895,2453.635,38.4865
2023-09-20T15:03:49,2420,42.8014,5.9826,13.2969,4.59889,2453.664,38.4861
2023-09-20T15:06:49,2420,42.8014,5.9826,13.2968,4.59905,2453.649,38.4877
2023-09-20T15:09:49,2420,42.8014,5.9826,13.2974,4.59892,2453.672,38.4859
2023-09-20T15:12:49,2420,42.8014,5.9826,13.2972,4.59890,2453.559,38.4859
2023-09-20T15:15:49,2420,42.8014,5.9826,13.2972,4.59917,2453.664,38.4884
2023-09-20T15:18:49,2420,42.8014,5.9826,13.2970,4.59906,2453.649,38.4876
2023-09-20T15:21:49,2420,42.8014,5.9826,13.2971,4.59900,2453.627,38.4869
2023-09-20T15:24:49,2420,42.8014,5.9826,13.2969,4.59903,2453.649,38.4874
2023-09-20T15:27:49,2420,42.8014,5.9826,13.2968,4.59906,2453.627,38.4878
2023-09-20T15:30:49,2420,42.8014,5.9826,13.2971,4.59886,2453.649,38.4855
2023-09-20T15:33:49,2420,42.8014,5.9826,13.2967,4.59889,2453.649,38.4863
2023-09-20T15:36:49,2420,42.8014,5.9826,13.2969,4.59884,2453.641,38.4856
2023-09-20T15:39:49,2420,42.8014,5.9826,13.2971,4.59881,2453.604,38.4851
2023-09-20T15:42:49,2420,42.8014,5.9826,13.2973,4.59879,2453.672,38.4847
2023-09-20T15:45:49,2420,42.8014,5.9826,13.2971,4.59889,2453.619,38.4859
2023-09-20T15:48:49,2420,42.8014,5.9826,13.2970,4.59887,2453.627,38.4858
2023-09-20T15:51:49,2420,42.8014,5.9826,13.2969,4.59891,2453.582,38.4862
2023-09-20T15:54:49,2420,42.8014,5.9826,13.2972,4.59892,2453.649,38.4860
2023-09-20T15:57:49,2420,42.8014,5.9826,13.2970,4.59899,2453.649,38.4869
2023-09-20T16:00:49,2420,42.8014,5.9826,13.2970,4.59897,2453.627,38.4867
2023-09-20T16:03:49,2420,42.8014,5.9826,13.2975,4.59894,2453.649,38.4860
2023-09-20T16:06:49,2420,42.8014,5.9826,13.2970,4.59887,2453.635,38.4858
2023-09-20T16:09:49,2420,42.8014,5.9826,13.2970,4.59884,2453.604,38.4856
2023-09-20T16:12:49,2420,42.8014,5.9826,13.2969,4.59891,2453.649,38.4862
2023-09-20T16:15:49,2420,42.8014,5.9826,13.2972,4.59896,2453.635,38.4865
2023-09-20T16:18:49,2420,42.8014,5.9826,13.2971,4.59890,2453.627,38.4860
2023-09-20T16:21:49,2420,42.8014,5.9826,13.2971,4.59885,2453.641,38.4855
2023-09-20T16:24:49,2420,42.8014,5.9826,13.2972,4.59892,2453.627,38.4861
2023-09-20T16:27:49,2420,42.8014,5.9826,13.2973,4.59897,2453.604,38.4864
2023-09-20T16:30:49,2420,42.8014,5.9826,13.2971,4.59894,2453.590,38.4863
2023-09-20T16:33:49,2420,42.8014,5.9826,13.2973,4.59895,2453.627,38.4862
2023-09-20T16:36:49,2420,42.8014,5.9826,13.2973,4.59898,2453.604,38.4866
2023-09-20T16:39:49,2420,42.8014,5.9826,13.2971,4.59893,2453.627,38.4862
2023-09-20T16:42:49,2420,42.8014,5.9826,13.2969,4.59883,2453.627,38.4855
2023-09-20T16:45:49,2420,42.8014,5.9826,13.2970,4.59886,2453.627,38.4857
2023-09-20T16:48:49,2420,42.8014,5.9826,13.2969,4.59885,2453.619,38.4857
2023-09-20T16:51:49,2420,42.8014,5.9826,13.2973,4.59891,2453.627,38.4859
2023-09-20T16:54:49,2420,42.8014,5.9826,13.2973,4.59892,2453.627,38.4860
2023-09-20T16:57:49,2420,42.8014,5.9826,13.2972,4.59887,2453.627,38.4856
2023-09-20T17:00:49,2420,42.8014,5.9826,13.2969,4.59887,2453.627,38.4859
2023-09-20T17:03:49,2420,42.8014,5.9826,13.2971,4.59898,2453.649,38.4867
2023-09-20T17:06:49,2420,42.8014,5.9826,13.2970,4.59893,2453.627,38.4864
2023-09-20T17:09:49,2420,42.8014,5.9826,13.2971,4.59883,2453.635,38.4853
2023-09-20T17:12:49,2420,42.8014,5.9826,13.2972,4.59886,2453.627,38.4855
2023-09-20T17:15:49,2420,42.8014,5.9826,13.2975,4.59890,2453.664,38.4856
2023-09-20T17:18:49,2420,42.8014,5.9826,13.2975,4.59885,2453.604,38.4851
2023-09-20T17:21:49,2420,42.8014,5.9826,13.2976,4.59886,2453.627,38.4851
2023-09-20T17:24:49,2420,42.8014,5.9826,13.2971,4.59887,2453.627,38.4857
2023-09-20T17:27:49,2420,42.8014,5.9826,13.2972,4.59885,2453.627,38.4854
2023-09-20T17:30:50,2420,42.8014,5.9826,13.2971,4.59881,2453.627,38.4851
2023-09-20T17:33:49,2420,42.8014,5.9826,13.2969,4.59880,2453.612,38.4853
2023-09-20T17:36:49,2420,42.8014,5.9826,13.2972,4.59881,2453.627,38.4851
2023-09-20T17:39:49,2420,42.8014,5.9826,13.2974,4.59885,2453.649,38.4852
2023-09-20T17:42:49,2420,42.8014,5.9826,13.2974,4.59884,2453.649,38.4851
2023-09-20T17:45:49,2420,42.8014,5.9826,13.2974,4.59889,2453.635,38.4856
2023-09-20T17:48:49,2420,42.8014,5.9826,13.2975,4.59882,2453.649,38.4849
2023-09-20T17:51:49,2420,42.8014,5.9826,13.2971,4.59879,2453.664,38.4849
2023-09-20T17:54:49,2420,42.8014,5.9826,13.2973,4.59889,2453.627,38.4856
2023-09-20T17:57:49,2420,42.8014,5.9826,13.2971,4.59880,2453.649,38.4851
2023-09-20T18:00:49,2420,42.8014,5.9826,13.2970,4.59877,2453.649,38.4848
2023-09-20T18:03:49,2420,42.8014,5.9826,13.2971,4.59879,2453.627,38.4849
2023-09-20T18:06:49,2420,42.8014,5.9826,13.2970,4.59877,2453.627,38.4849
2023-09-20T18:09:49,2420,42.8014,5.9826,13.2969,4.59875,2453.641,38.4847
2023-09-20T18:12:49,2420,42.8014,5.9826,13.2970,4.59875,2453.672,38.4847
2023-09-20T18:15:49,2420,42.8014,5.9826,13.2970,4.59881,2453.649,38.4853
2023-09-20T18:18:49,2420,42.8014,5.9826,13.2969,4.59875,2453.649,38.4847
2023-09-20T18:21:49,2420,42.8014,5.9826,13.2971,4.59875,2453.649,38.4846
2023-09-20T18:24:49,2420,42.8014,5.9826,13.2966,4.59876,2453.635,38.4851
2023-09-20T18:27:49,2420,42.8014,5.9826,13.2968,4.59876,2453.627,38.4850
2023-09-20T18:30:49,2420,42.8014,5.9826,13.2971,4.59872,2453.672,38.4843
2023-09-20T18:33:49,2420,42.8014,5.9826,13.2967,4.59880,2453.672,38.4854
2023-09-20T18:36:49,2420,42.8014,5.9826,13.2968,4.59875,2453.649,38.4848
2023-09-20T18:39:49,2420,42.8014,5.9826,13.2966,4.59875,2453.612,38.4850
2023-09-20T18:42:49,2420,42.8014,5.9826,13.2968,4.59877,2453.627,38.4851
2023-09-20T18:45:49,2420,42.8014,5.9826,13.2966,4.59877,2453.649,38.4853
2023-09-20T18:48:49,2420,42.8014,5.9826,13.2967,4.59876,2453.672,38.4850
2023-09-20T18:51:49,2420,42.8014,5.9826,13.2970,4.59872,2453.672,38.4844
2023-09-20T18:54:49,2420,42.8014,5.9826,13.2969,4.59877,2453.649,38.4849
2023-09-20T18:57:49,2420,42.8014,5.9826,13.2968,4.59875,2453.695,38.4847
2023-09-20T19:00:49,2420,42.8014,5.9826,13.2969,4.59878,2453.680,38.4850
2023-09-20T19:03:49,2420,42.8014,5.9826,13.2969,4.59880,2453.672,38.4852
2023-09-20T19:06:49,2420,42.8014,5.9826,13.2965,4.59879,2453.672,38.4855
2023-09-20T19:09:49,2420,42.8014,5.9826,13.2970,4.59877,2453.664,38.4849
2023-09-20T19:12:49,2420,42.8014,5.9826,13.2972,4.59879,2453.672,38.4848
2023-09-20T19:15:49,2420,42.8014,5.9826,13.2972,4.59880,2453.672,38.4849
2023-09-20T19:18:49,2420,42.8014,5.9826,13.2967,4.59882,2453.687,38.4856
2023-09-20T19:21:49,2420,42.8014,5.9826,13.2967,4.59875,2453.695,38.4850
2023-09-20T19:24:49,2420,42.8014,5.9826,13.2968,4.59872,2453.672,38.4846
2023-09-20T19:27:49,2420,42.8014,5.9826,13.2966,4.59880,2453.695,38.4855
2023-09-20T19:30:49,2420,42.8014,5.9826,13.2967,4.59877,2453.695,38.4852
2023-09-20T19:33:49,2420,42.8014,5.9826,13.2968,4.59878,2453.695,38.4852
2023-09-20T19:36:49,2420,42.8014,5.9826,13.2970,4.59879,2453.695,38.4850
2023-09-20T19:39:49,2420,42.8014,5.9826,13.2971,4.59877,2453.695,38.4848
2023-09-20T19:42:49,2420,42.8014,5.9826,13.2970,4.59876,2453.695,38.4847
2023-09-20T19:45:49,2420,42.8014,5.9826,13.2967,4.59873,2453.695,38.4848
2023-09-20T19:48:49,2420,42.8014,5.9826,13.2968,4.59878,2453.695,38.4851
2023-09-20T19:51:49,2420,42.8014,5.9826,13.2973,4.59877,2453.695,38.4846
2023-09-20T19:54:49,2420,42.8014,5.9826,13.2973,4.59873,2453.695,38.4842
2023-09-20T19:57:49,2420,42.8014,5.9826,13.2968,4.59873,2453.695,38.4847
2023-09-20T20:00:49,2420,42.8014,5.9826,13.2968,4.59883,2453.717,38.4855
2023-09-20T20:03:49,2420,42.8014,5.9826,13.2971,4.59877,2453.695,38.4848
2023-09-20T20:06:49,2420,42.8014,5.9826,13.2970,4.59880,2453.680,38.4851
2023-09-20T20:09:49,2420,42.8014,5.9826,13.2968,4.59880,2453.695,38.4854
2023-09-20T20:12:49,2420,42.8014,5.9826,13.2967,4.59876,2453.717,38.4850
2023-09-20T20:15:49,2420,42.8014,5.9826,13.2970,4.59875,2453.717,38.4846
2023-09-20T20:18:49,2420,42.8014,5.9826,13.2974,4.59877,2453.717,38.4844
2023-09-20T20:21:49,2420,42.8014,5.9826,13.2970,4.59878,2453.740,38.4850
2023-09-20T20:24:49,2420,42.8014,5.9826,13.2968,4.59874,2453.695,38.4847
2023-09-20T20:27:49,2420,42.8014,5.9826,13.2971,4.59877,2453.717,38.4847
2023-09-20T20:30:49,2420,42.8014,5.9826,13.2971,4.59876,2453.702,38.4846
2023-09-20T20:33:49,2420,42.8014,5.9826,13.2967,4.59874,2453.717,38.4848
2023-09-20T20:36:49,2420,42.8014,5.9826,13.2970,4.59875,2453.740,38.4845
2023-09-20T20:39:49,2420,42.8014,5.9826,13.2967,4.59877,2453.740,38.4851
2023-09-20T20:42:49,2420,42.8014,5.9826,13.2970,4.59873,2453.754,38.4845
2023-09-20T20:45:49,2420,42.8014,5.9826,13.2964,4.59877,2453.702,38.4854
2023-09-20T20:48:49,2420,42.8014,5.9826,13.2965,4.59874,2453.725,38.4850
2023-09-20T20:51:49,2420,42.8014,5.9826,13.2966,4.59880,2453.695,38.4854
2023-09-20T20:54:49,2420,42.8014,5.9826,13.2966,4.59880,2453.740,38.4856
2023-09-20T20:57:49,2420,42.8014,5.9826,13.2967,4.59880,2453.740,38.4854
2023-09-20T21:00:49,2420,42.8014,5.9826,13.2969,4.59873,2453.717,38.4845
2023-09-20T21:03:49,2420,42.8014,5.9826,13.2972,4.59872,2453.717,38.4842
2023-09-20T21:06:49,2420,42.8014,5.9826,13.2968,4.59871,2453.740,38.4845
2023-09-20T21:09:49,2420,42.8014,5.9826,13.2970,4.59872,2453.740,38.4844
2023-09-20T21:12:49,2420,42.8014,5.9826,13.2972,4.59876,2453.740,38.4845
2023-09-20T21:15:49,2420,42.8014,5.9826,13.2970,4.59872,2453.762,38.4843
2023-09-20T21:18:49,2420,42.8014,5.9826,13.2973,4.59875,2453.740,38.4843
2023-09-20T21:21:49,2420,42.8014,5.9826,13.2970,4.59872,2453.762,38.4843
2023-09-20T21:24:49,2420,42.8014,5.9826,13.2967,4.59874,2453.777,38.4848
2023-09-20T21:27:49,2420,42.8014,5.9826,13.2971,4.59875,2453.740,38.4845
2023-09-20T21:30:49,2420,42.8014,5.9826,13.2969,4.59872,2453.777,38.4844
2023-09-20T21:33:49,2420,42.8014,5.9826,13.2970,4.59872,2453.717,38.4843
2023-09-20T21:36:49,2420,42.8014,5.9826,13.2968,4.59874,2453.725,38.4848
2023-09-20T21:39:49,2420,42.8014,5.9826,13.2968,4.59873,2453.785,38.4847
2023-09-20T21:42:49,2420,42.8014,5.9826,13.2967,4.59873,2453.754,38.4847
2023-09-20T21:45:49,2420,42.8014,5.9826,13.2968,4.59875,2453.740,38.4848
2023-09-20T21:48:49,2420,42.8014,5.9826,13.2971,4.59874,2453.740,38.4844
2023-09-20T21:51:49,2420,42.8014,5.9826,13.2968,4.59872,2453.762,38.4844
2023-09-20T21:54:49,2420,42.8014,5.9826,13.2972,4.59876,2453.762,38.4845
2023-09-20T21:57:49,2420,42.8014,5.9826,13.2974,4.59872,2453.762,38.4839
2023-09-20T22:00:49,2420,42.8014,5.9826,13.2971,4.59873,2453.748,38.4843
2023-09-20T22:03:49,2420,42.8014,5.9826,13.2971,4.59872,2453.748,38.4842
2023-09-20T22:06:49,2420,42.8014,5.9826,13.2975,4.59872,2453.725,38.4839
2023-09-20T22:09:49,2420,42.8014,5.9826,13.2971,4.59871,2453.740,38.4841
2023-09-20T22:12:49,2420,42.8014,5.9826,13.2971,4.59873,2453.740,38.4843
2023-09-20T22:15:49,2420,42.8014,5.9826,13.2966,4.59872,2453.740,38.4847
2023-09-20T22:18:49,2420,42.8014,5.9826,13.2969,4.59877,2453.740,38.4849
2023-09-20T22:21:49,2420,42.8014,5.9826,13.2969,4.59871,2453.740,38.4843
2023-09-20T22:24:49,2420,42.8014,5.9826,13.2972,4.59875,2453.740,38.4844
2023-09-20T22:27:49,2420,42.8014,5.9826,13.2966,4.59872,2453.717,38.4847
2023-09-20T22:30:49,2420,42.8014,5.9826,13.2978,4.59874,2453.740,38.4838
2023-09-20T22:33:49,2420,42.8014,5.9826,13.2971,4.59872,2453.740,38.4842
2023-09-20T22:36:49,2420,42.8014,5.9826,13.2970,4.59875,2453.740,38.4846
2023-09-20T22:39:49,2420,42.8014,5.9826,13.2973,4.59875,2453.725,38.4842
2023-09-20T22:42:49,2420,42.8014,5.9826,13.2973,4.59872,2453.740,38.4840
2023-09-20T22:45:49,2420,42.8014,5.9826,13.2970,4.59874,2453.762,38.4845
2023-09-20T22:48:49,2420,42.8014,5.9826,13.2968,4.59872,2453.740,38.4846
2023-09-20T22:51:49,2420,42.8014,5.9826,13.2972,4.59872,2453.717,38.4842
2023-09-20T22:54:49,2420,42.8014,5.9826,13.2969,4.59873,2453.740,38.4845
2023-09-20T22:57:49,2420,42.8014,5.9826,13.2970,4.59877,2453.732,38.4848
2023-09-20T23:00:49,2420,42.8014,5.9826,13.2967,4.59875,2453.740,38.4850
2023-09-20T23:03:49,2420,42.8014,5.9826,13.2970,4.59875,2453.672,38.4847
2023-09-20T23:06:49,2420,42.8014,5.9826,13.2971,4.59877,2453.717,38.4847
2023-09-20T23:09:49,2420,42.8014,5.9826,13.2972,4.59880,2453.695,38.4850
2023-09-20T23:12:49,2420,42.8014,5.9826,13.2966,4.59876,2453.695,38.4851
2023-09-20T23:15:49,2420,42.8014,5.9826,13.2971,4.59873,2453.740,38.4843
2023-09-20T23:18:49,2420,42.8014,5.9826,13.2968,4.59875,2453.717,38.4848
2023-09-20T23:21:49,2420,42.8014,5.9826,13.2970,4.59877,2453.717,38.4849
2023-09-20T23:24:49,2420,42.8014,5.9826,13.2968,4.59879,2453.732,38.4851
2023-09-20T23:27:49,2420,42.8014,5.9826,13.2970,4.59877,2453.717,38.4848
2023-09-20T23:30:49,2420,42.8014,5.9826,13.2970,4.59875,2453.717,38.4846
2023-09-20T23:33:49,2420,42.8014,5.9826,13.2968,4.59874,2453.717,38.4847
2023-09-20T23:36:49,2420,42.8014,5.9826,13.2969,4.59877,2453.717,38.4849
2023-09-20T23:39:49,2420,42.8014,5.9826,13.2970,4.59882,2453.717,38.4853
2023-09-20T23:42:49,2420,42.8014,5.9826,13.2973,4.59876,2453.702,38.4844
2023-09-20T23:45:49,2420,42.8014,5.9826,13.2970,4.59875,2453.702,38.4846
2023-09-20T23:48:49,2420,42.8014,5.9826,13.2970,4.59873,2453.680,38.4845
2023-09-20T23:51:49,2420,42.8014,5.9826,13.2970,4.59875,2453.695,38.4847
2023-09-20T23:54:49,2420,42.8014,5.9826,13.2973,4.59873,2453.680,38.4841
2023-09-20T23:57:49,2420,42.8014,5.9826,13.2971,4.59875,2453.695,38.4845
